DW0307 Weather Reports


time (UTC)temp
F
wind
direction
speed
knots
gust
knots
rain 1hr
in
rain 24hr
in
rain mn
in
humidity
%
barometer
mb
20260906103053 68 270 7.8 18.2 0.00 0.00 0.00 37 1024.2
20260906101551 67 299 7.8 15.6 0.00 0.00 0.00 37 1024.1
20260906100049 67 251 9.6 16.5 0.00 0.00 0.00 38 1024.1
20260906094558 67 247 13.0 20.0 0.00 0.00 0.00 48 1024.1
20260906093053 66 319 10.4 18.2 0.00 0.00 0.00 39 1024.0
20260906091552 66 289 8.7 20.0 0.00 0.00 0.00 40 1023.9
20260906090051 65 347 9.6 20.9 0.00 0.00 0.00 40 1024.0
20260906084557 64 304 14.8 22.6 0.00 0.00 0.00 44 1024.0
20260906083054 63 37 10.4 20.9 0.00 0.00 0.00 42 1023.8
20260906081556 64 312 16.5 30.4 0.00 0.00 0.00 43 1023.7
20260906080111 63 320 10.4 20.0 0.00 0.00 0.00 45 1023.4
20260906074559 63 292 13.9 26.1 0.00 0.00 0.00 45 1023.3
20260906073054 62 32 10.4 19.1 0.00 0.00 0.00 45 1022.9
20260906071559 62 331 13.0 23.5 0.00 0.00 0.00 46 1023.1
20260906070059 62 263 8.7 20.0 0.00 0.00 0.00 50 1023.0
20260906064555 62 329 11.3 18.2 0.00 0.00 0.00 47 1023.1
20260906063052 62 272 11.3 21.7 0.00 0.00 0.00 51 1022.9
20260906061606 61 296 11.3 19.1 0.00 0.00 0.00 52 1022.7
20260906060150 60 229 12.2 26.9 0.00 0.00 0.00 57 1022.4
20260906054554 59 259 8.7 20.0 0.00 0.00 0.00 58 1022.4
20260906053100 59 207 7.8 14.8 0.00 0.00 0.00 60 1022.3
20260906051553 57 234 0.0 13.0 0.00 0.00 0.00 64 1022.3
20260906050110 56 214 7.8 14.8 0.00 0.00 0.00 67 1022.2
20260906044559 55 273 2.6 8.7 0.00 0.00 0.00 69 1022.0
20260906043100 53 255 0.9 6.1 0.00 0.00 0.00 70 1021.8
20260906041550 53 238 5.2 11.3 0.00 0.00 0.00 71 1021.8
20260906040052 53 240 8.7 13.9 0.00 0.00 0.00 71 1021.6
20260906034601 54 249 7.8 18.2 0.00 0.00 0.00 70 1021.5
20260906033056 54 219 10.4 15.6 0.00 0.00 0.00 70 1021.4
20260906031613 55 243 11.3 18.2 0.00 0.00 0.00 70 1021.1
20260906030106 55 250 9.6 13.9 0.00 0.00 0.00 69 1020.9
20260906024603 55 269 9.6 13.9 0.00 0.00 0.00 68 1021.1
20260906023112 55 153 2.6 7.8 0.00 0.00 0.00 68 1020.9
20260906021601 55 201 5.2 8.7 0.00 0.00 0.00 69 1020.9
20260906020101 56 129 2.6 7.0 0.00 0.00 0.00 69 1020.9
20260906014554 55 128 1.7 5.2 0.00 0.00 0.00 70 1021.1
20260906013050 56 102 4.3 6.1 0.00 0.00 0.00 69 1021.1
20260906011553 56 0 1.7 6.1 0.00 0.00 0.00 68 1020.9
20260906004603 56 69 1.7 7.8 0.00 0.00 0.00 67 1021.0
20260906003105 57 118 2.6 9.6 0.00 0.00 0.00 66 1020.8
20260906001551 58 28 4.3 9.6 0.00 0.00 0.00 60 1020.8
20260906000108 58 76 4.3 9.6 0.00 0.00 0.00 56 1020.8
20260905234556 57 332 1.7 7.8 0.00 0.00 0.00 58 1020.6
20260905233106 58 248 0.0 3.5 0.00 0.00 0.00 55 1020.5
20260905231618 58 118 0.9 8.7 0.00 0.00 0.00 55 1020.6
20260905230104 57 132 3.5 7.0 0.00 0.00 0.00 56 1020.3
20260905224604 60 0 0.0 6.1 0.00 0.00 0.00 52 1020.3
20260905223105 61 0 2.6 13.0 0.00 0.00 0.00 49 1020.2
20260905221602 61 232 4.3 15.6 0.00 0.00 0.00 50 1020.3
20260905220056 61 246 0.9 13.0 0.00 0.00 0.00 52 1020.3
20260905214602 60 223 6.1 13.0 0.00 0.00 0.00 57 1020.1
20260905213104 61 221 10.4 18.2 0.00 0.00 0.00 58 1020.0
20260905211552 61 213 6.1 13.0 0.00 0.00 0.00 58 1020.1
20260905210103 62 227 6.1 13.9 0.00 0.00 0.00 55 1020.0
20260905204558 61 252 7.0 12.2 0.00 0.00 0.00 53 1020.0
20260905203053 61 227 5.2 8.7 0.00 0.00 0.00 56 1020.2
20260905201552 60 251 5.2 11.3 0.00 0.00 0.00 58 1020.3
20260905200100 61 225 3.5 9.6 0.00 0.00 0.00 60 1020.1
20260905194556 62 219 9.6 22.6 0.00 0.00 0.00 55 1020.0
20260905193051 60 263 6.1 8.7 0.00 0.00 0.00 55 1019.9
20260905191600 57 290 5.2 11.3 0.00 0.00 0.00 65 1020.0
20260905184602 58 245 4.3 7.8 0.00 0.00 0.00 64 1019.9
20260905183053 56 183 2.6 5.2 0.00 0.00 0.00 68 1019.6
20260905181607 56 313 0.9 3.5 0.00 0.00 0.00 68 1019.5
20260905180115 57 257 4.3 8.7 0.00 0.00 0.00 67 1019.2
20260905174555 58 27 4.3 10.4 0.00 0.00 0.00 65 1018.8
20260905173112 60 231 3.5 9.6 0.00 0.00 0.00 61 1018.4
20260905171554 61 263 9.6 16.5 0.00 0.00 0.00 59 1018.2
20260905170049 63 248 11.3 18.2 0.00 0.00 0.00 57 1018.2
20260905164602 64 238 12.2 19.1 0.00 0.00 0.00 55 1018.0
20260905163102 64 258 13.9 20.9 0.00 0.00 0.00 54 1017.9
20260905161601 65 260 12.2 21.7 0.00 0.00 0.00 54 1017.8
20260905160100 66 246 16.5 23.5 0.00 0.00 0.00 52 1017.8
20260905154605 67 250 14.8 22.6 0.00 0.00 0.00 51 1017.8
20260905153047 67 257 16.5 24.3 0.00 0.00 0.00 50 1017.6
20260905151559 68 252 17.4 25.2 0.00 0.00 0.00 50 1017.6
20260905150055 69 250 16.5 24.3 0.00 0.00 0.00 49 1017.6
20260905144550 69 232 16.5 23.5 0.00 0.00 0.00 47 1017.8
20260905143102 69 250 14.8 25.2 0.00 0.00 0.00 52 1017.7
20260905141559 69 250 14.8 22.6 0.00 0.00 0.00 52 1017.9
20260905140100 68 249 15.6 26.9 0.00 0.00 0.00 54 1017.7
20260905134558 70 252 15.6 21.7 0.00 0.00 0.00 51 1017.8
20260905133059 69 269 14.8 25.2 0.00 0.00 0.00 52 1017.8
20260905131555 69 267 16.5 21.7 0.00 0.00 0.00 53 1017.7
20260905130054 70 234 11.3 18.2 0.00 0.00 0.00 53 1017.6
20260905124601 71 246 10.4 16.5 0.00 0.00 0.00 54 1017.5
20260905123105 70 257 13.0 22.6 0.00 0.00 0.00 55 1017.6
20260905121556 70 239 13.0 20.0 0.00 0.00 0.00 56 1017.6
20260905120111 70 229 10.4 20.0 0.00 0.00 0.00 59 1017.9
20260905114608 69 225 8.7 19.1 0.00 0.00 0.00 61 1017.7
20260905113101 68 258 11.3 21.7 0.00 0.00 0.00 60 1017.9
20260905111655 67 265 13.0 23.5 0.00 0.00 0.00 62 1017.9
20260905110058 64 265 12.2 21.7 0.00 0.00 0.00 67 1017.7
20260905104555 63 246 8.7 12.2 0.00 0.00 0.00 70 1018.2